TimeCST,TemperatureF,Dew PointF,Humidity,Sea Level PressureIn,VisibilityMPH,Wind Direction,Wind SpeedMPH,Gust SpeedMPH,PrecipitationIn,Events,Conditions,WindDirDegrees,DateUTC
12:53 AM,46.0,37.0,71,29.93,10.0,North,4.6,-,N/A,,Overcast,10,2012-12-07 06:53:00
1:53 AM,45.0,37.0,74,29.93,10.0,North,10.4,-,N/A,,Overcast,360,2012-12-07 07:53:00
2:53 AM,45.0,37.9,76,29.92,10.0,NNE,6.9,-,N/A,,Overcast,20,2012-12-07 08:53:00
3:53 AM,43.0,37.9,82,29.92,10.0,North,4.6,-,N/A,,Mostly Cloudy,350,2012-12-07 09:53:00
4:08 AM,42.8,37.4,81,29.91,10.0,North,5.8,-,N/A,,Overcast,360,2012-12-07 10:08:00
4:23 AM,44.6,39.2,81,29.90,10.0,North,5.8,-,N/A,,Overcast,360,2012-12-07 10:23:00
4:51 AM,44.6,39.2,81,29.90,10.0,North,5.8,-,N/A,,Overcast,10,2012-12-07 10:51:00
4:53 AM,44.1,39.0,82,29.91,10.0,NNE,4.6,-,N/A,,Overcast,20,2012-12-07 10:53:00
5:00 AM,44.6,39.2,81,29.90,10.0,NNE,3.5,-,N/A,,Overcast,20,2012-12-07 11:00:00
5:35 AM,42.8,39.2,87,29.91,10.0,NNW,6.9,-,N/A,,Overcast,340,2012-12-07 11:35:00
5:53 AM,43.0,39.0,86,29.91,10.0,North,4.6,-,N/A,,Mostly Cloudy,360,2012-12-07 11:53:00
6:53 AM,39.9,37.9,93,29.91,10.0,Calm,Calm,-,N/A,,Mostly Cloudy,0,2012-12-07 12:53:00
7:53 AM,43.0,39.9,89,29.91,10.0,Calm,Calm,-,N/A,,Overcast,0,2012-12-07 13:53:00
8:08 AM,42.8,39.2,87,29.90,10.0,North,4.6,-,N/A,,Overcast,10,2012-12-07 14:08:00
8:53 AM,44.1,39.9,85,29.91,10.0,NE,4.6,-,N/A,,Overcast,50,2012-12-07 14:53:00
9:53 AM,45.0,41.0,86,29.93,10.0,NE,3.5,-,N/A,,Overcast,50,2012-12-07 15:53:00
10:53 AM,46.0,41.0,83,29.91,10.0,NE,6.9,-,N/A,,Overcast,40,2012-12-07 16:53:00
11:53 AM,46.9,41.0,80,29.90,8.0,NE,3.5,-,N/A,,Overcast,40,2012-12-07 17:53:00
12:53 PM,46.9,42.1,83,29.88,8.0,Calm,Calm,-,N/A,,Overcast,0,2012-12-07 18:53:00
1:53 PM,48.0,42.1,80,29.86,8.0,North,6.9,-,0.00,Rain,Light Rain,350,2012-12-07 19:53:00
2:53 PM,46.9,42.1,83,29.86,5.0,North,5.8,-,0.00,,Haze,10,2012-12-07 20:53:00
3:53 PM,46.9,42.1,83,29.87,6.0,North,3.5,-,0.00,,Haze,360,2012-12-07 21:53:00
4:53 PM,46.0,42.1,86,29.88,6.0,North,4.6,-,N/A,,Overcast,10,2012-12-07 22:53:00
5:24 PM,44.6,41.0,87,29.88,7.0,NE,3.5,-,N/A,,Mostly Cloudy,40,2012-12-07 23:24:00
5:32 PM,44.6,41.0,87,29.88,8.0,NNE,3.5,-,N/A,,Overcast,30,2012-12-07 23:32:00
5:53 PM,45.0,41.0,86,29.90,8.0,NNE,5.8,-,N/A,,Overcast,20,2012-12-07 23:53:00
6:48 PM,44.6,41.0,87,29.89,8.0,Calm,Calm,-,N/A,,Overcast,0,2012-12-08 00:48:00
7:21 PM,41.0,39.2,93,29.91,7.0,NNW,4.6,-,N/A,,Overcast,340,2012-12-08 01:21:00
7:53 PM,44.1,39.9,85,29.92,8.0,Calm,Calm,-,N/A,,Mostly Cloudy,0,2012-12-08 01:53:00
8:53 PM,41.0,39.9,96,29.93,7.0,NW,3.5,-,N/A,,Mostly Cloudy,310,2012-12-08 02:53:00
9:53 PM,42.1,39.9,92,29.94,7.0,West,4.6,-,N/A,,Overcast,280,2012-12-08 03:53:00
10:08 PM,41.0,39.2,93,29.93,7.0,WNW,4.6,-,N/A,,Mostly Cloudy,300,2012-12-08 04:08:00
10:53 PM,42.1,39.9,92,29.96,6.0,WNW,5.8,-,N/A,,Mostly Cloudy,300,2012-12-08 04:53:00
11:53 PM,39.9,39.0,97,29.97,5.0,NW,6.9,-,N/A,,Overcast,310,2012-12-08 05:53:00